Location: Derby
(52.9213°N, 1.4761°W)
Time: 02:56:15
(UTC+01:00)

A-11 Canister half - Pass Details

Date: 25 May 2025
Orbit: 1524 x 1684 km, 47.3° (Epoch: 12 June)

Event Time Altitude Azimuth Distance (km) Brightness Sun altitude
Rises 02:37:37 0° 283° (WNW) 4,821 11.5 -13.3°
Reaches altitude 10° 02:43:27 10° 256° (WSW) 3,868 10.7 -12.9°
Maximum altitude 02:46:45 12° 236° (SW) 3,712 10.5 -12.7°
Enters shadow 02:48:01 12° 228° (SW) 3,743 10.5 -12.7°
